| time (UTC) | temp F | wind direction | speed MPH | gust MPH | rain 1hr in | rain 24hr in | rain mn in | humidity % | barometer mb |
| 20260901054532 | 81 | 130 | 2.0 | 5.0 | 0.00 | 0.00 | 0.00 | 86 | 1016.9 |
| 20260901053033 | 81 | 132 | 1.0 | 3.0 | 0.00 | 0.00 | 0.00 | 86 | 1016.8 |
| 20260901051537 | 81 | 140 | 1.0 | 3.0 | 0.00 | 0.00 | 0.00 | 86 | 1016.6 |
| 20260901050026 | 81 | 140 | 1.0 | 4.0 | 0.00 | 0.00 | 0.00 | 86 | 1016.5 |
| 20260901044509 | 81 | 140 | 2.0 | 5.0 | 0.00 | 0.00 | 0.00 | 86 | 1016.4 |
| 20260901043015 | 82 | 147 | 3.0 | 6.0 | 0.00 | 0.00 | 0.00 | 86 | 1016.4 |
| 20260901041520 | 82 | 141 | 4.0 | 6.0 | 0.00 | 0.00 | 0.00 | 86 | 1016.6 |
| 20260901040023 | 82 | 113 | 4.0 | 7.0 | 0.00 | 0.00 | 0.00 | 85 | 1016.5 |
| 20260901034547 | 83 | 139 | 4.0 | 7.0 | 0.00 | 0.00 | 0.00 | 85 | 1016.5 |
| 20260901033102 | 83 | 146 | 4.0 | 8.0 | 0.00 | 0.00 | 0.00 | 85 | 1016.3 |
| 20260901031607 | 83 | 137 | 4.0 | 7.0 | 0.00 | 0.00 | 0.00 | 84 | 1016.1 |
| 20260901030059 | 83 | 134 | 5.0 | 7.0 | 0.00 | 0.00 | 0.00 | 84 | 1016.0 |
| 20260901030001 | 83 | 133 | 5.0 | 7.0 | 0.00 | 0.00 | 0.00 | 84 | 1016.0 |
| 20260901024508 | 83 | 133 | 5.0 | 7.0 | 0.00 | 0.00 | 0.00 | 84 | 1015.7 |
| 20260901023020 | 84 | 142 | 3.0 | 5.0 | 0.00 | 0.00 | 0.00 | 84 | 1015.4 |
| 20260901021519 | 84 | 140 | 1.0 | 5.0 | 0.00 | 0.00 | 0.00 | 83 | 1015.3 |
| 20260901020002 | 85 | 141 | 3.0 | 7.0 | 0.00 | 0.00 | 0.00 | 83 | 1015.4 |
| 20260901014517 | 85 | 147 | 4.0 | 7.0 | 0.00 | 0.00 | 0.00 | 82 | 1015.3 |
| 20260901013028 | 85 | 149 | 5.0 | 8.0 | 0.00 | 0.00 | 0.00 | 81 | 1015.2 |
| 20260901011516 | 85 | 136 | 5.0 | 7.0 | 0.00 | 0.00 | 0.00 | 80 | 1015.2 |
| 20260901010049 | 86 | 155 | 5.0 | 9.0 | 0.00 | 0.00 | 0.00 | 80 | 1015.1 |
| 20260901004605 | 86 | 144 | 2.0 | 6.0 | 0.00 | 0.00 | 0.00 | 79 | 1015.3 |
| 20260901003003 | 86 | 139 | 3.0 | 8.0 | 0.00 | 0.00 | 0.00 | 78 | 1015.4 |
| 20260901001513 | 86 | 134 | 5.0 | 7.0 | 0.00 | 0.00 | 0.00 | 77 | 1015.3 |
| 20260901000016 | 87 | 122 | 4.0 | 8.0 | 0.00 | 0.00 | 0.00 | 77 | 1015.4 |
| 20260831234526 | 87 | 140 | 5.0 | 9.0 | 0.00 | 0.00 | 0.00 | 77 | 1015.4 |
| 20260831233028 | 87 | 130 | 6.0 | 12.0 | 0.00 | 0.00 | 0.00 | 76 | 1015.4 |
| 20260831231536 | 88 | 138 | 7.0 | 11.0 | 0.00 | 0.00 | 0.00 | 76 | 1015.4 |
| 20260831230029 | 88 | 134 | 6.0 | 11.0 | 0.00 | 0.00 | 0.00 | 76 | 1015.3 |
| 20260831224519 | 89 | 140 | 7.0 | 12.0 | 0.00 | 0.00 | 0.00 | 75 | 1015.5 |
| 20260831223025 | 88 | 109 | 6.0 | 15.0 | 0.00 | 0.00 | 0.00 | 75 | 1015.6 |
| 20260831221527 | 89 | 148 | 8.0 | 15.0 | 0.00 | 0.00 | 0.00 | 75 | 1015.6 |
| 20260831220030 | 90 | 131 | 7.0 | 12.0 | 0.00 | 0.00 | 0.00 | 73 | 1015.6 |
| 20260831214543 | 91 | 130 | 6.0 | 12.0 | 0.00 | 0.00 | 0.00 | 69 | 1015.6 |
| 20260831213053 | 91 | 110 | 4.0 | 8.0 | 0.00 | 0.00 | 0.00 | 69 | 1015.8 |
| 20260831211557 | 91 | 93 | 6.0 | 9.0 | 0.00 | 0.00 | 0.00 | 69 | 1015.9 |
| 20260831210105 | 91 | 91 | 6.0 | 10.0 | 0.00 | 0.00 | 0.00 | 69 | 1016.1 |
| 20260831204558 | 91 | 96 | 7.0 | 11.0 | 0.00 | 0.00 | 0.00 | 69 | 1016.3 |
| 20260831204506 | 91 | 119 | 7.0 | 11.0 | 0.00 | 0.00 | 0.00 | 69 | 1016.3 |
| 20260831203100 | 91 | 144 | 7.0 | 10.0 | 0.00 | 0.00 | 0.00 | 70 | 1016.4 |
| 20260831201555 | 91 | 102 | 5.0 | 12.0 | 0.00 | 0.00 | 0.00 | 70 | 1016.4 |
| 20260831200058 | 92 | 100 | 9.0 | 13.0 | 0.00 | 0.00 | 0.00 | 71 | 1016.4 |
| 20260831194508 | 92 | 137 | 4.0 | 11.0 | 0.00 | 0.00 | 0.00 | 71 | 1016.6 |
| 20260831193013 | 92 | 113 | 6.0 | 11.0 | 0.00 | 0.00 | 0.00 | 73 | 1016.8 |
| 20260831191536 | 92 | 118 | 8.0 | 10.0 | 0.00 | 0.00 | 0.00 | 71 | 1017.1 |
| 20260831190026 | 92 | 170 | 5.0 | 10.0 | 0.00 | 0.00 | 0.00 | 72 | 1017.3 |
| 20260831184530 | 91 | 115 | 2.0 | 8.0 | 0.00 | 0.00 | 0.00 | 75 | 1017.2 |
| 20260831183035 | 90 | 54 | 5.0 | 10.0 | 0.00 | 0.00 | 0.00 | 76 | 1017.3 |
| 20260831181536 | 90 | 127 | 6.0 | 10.0 | 0.00 | 0.00 | 0.00 | 77 | 1017.6 |
| 20260831180027 | 89 | 51 | 3.0 | 9.0 | 0.00 | 0.00 | 0.00 | 79 | 1017.9 |
| 20260831174528 | 89 | 138 | 6.0 | 9.0 | 0.00 | 0.00 | 0.00 | 79 | 1018.1 |
| 20260831173029 | 89 | 143 | 7.0 | 9.0 | 0.00 | 0.00 | 0.00 | 80 | 1018.1 |
| 20260831171535 | 88 | 125 | 0.0 | 5.0 | 0.00 | 0.00 | 0.00 | 82 | 1018.2 |
| 20260831170034 | 87 | 115 | 3.0 | 7.0 | 0.00 | 0.00 | 0.00 | 82 | 1018.3 |
| 20260831164545 | 87 | 53 | 2.0 | 6.0 | 0.00 | 0.00 | 0.00 | 85 | 1018.5 |
| 20260831163039 | 86 | 321 | 1.0 | 8.0 | 0.00 | 0.00 | 0.00 | 85 | 1018.4 |
| 20260831161523 | 86 | 42 | 1.0 | 5.0 | 0.00 | 0.00 | 0.00 | 86 | 1018.5 |
| 20260831160007 | 86 | 75 | 1.0 | 6.0 | 0.00 | 0.00 | 0.00 | 87 | 1018.4 |
| 20260831154511 | 85 | 342 | 0.0 | 5.0 | 0.00 | 0.00 | 0.00 | 87 | 1018.4 |
| 20260831153020 | 84 | 305 | 2.0 | 5.0 | 0.00 | 0.00 | 0.00 | 87 | 1018.5 |
| 20260831151528 | 84 | 321 | 3.0 | 6.0 | 0.00 | 0.00 | 0.00 | 88 | 1018.4 |
| 20260831150034 | 84 | 342 | 2.0 | 5.0 | 0.00 | 0.00 | 0.00 | 88 | 1018.3 |
| 20260831144527 | 84 | 30 | 1.0 | 6.0 | 0.00 | 0.00 | 0.00 | 90 | 1018.1 |
| 20260831143015 | 83 | 59 | 0.0 | 4.0 | 0.00 | 0.00 | 0.00 | 90 | 1017.9 |
| 20260831141522 | 83 | 52 | 2.0 | 5.0 | 0.00 | 0.00 | 0.00 | 90 | 1018.2 |
| 20260831140021 | 82 | 80 | 0.0 | 4.0 | 0.00 | 0.00 | 0.00 | 90 | 1018.0 |
| 20260831134524 | 81 | 93 | 0.0 | 0.0 | 0.00 | 0.00 | 0.00 | 90 | 1017.9 |
| 20260831133019 | 80 | 93 | 0.0 | 2.0 | 0.00 | 0.00 | 0.00 | 90 | 1017.8 |
| 20260831131513 | 79 | 93 | 0.0 | 1.0 | 0.00 | 0.00 | 0.00 | 90 | 1017.6 |
| 20260831130018 | 77 | 93 | 0.0 | 1.0 | 0.00 | 0.00 | 0.00 | 90 | 1017.5 |
| 20260831124539 | 76 | 93 | 0.0 | 2.0 | 0.00 | 0.00 | 0.00 | 89 | 1017.3 |
| 20260831123023 | 76 | 93 | 0.0 | 0.0 | 0.00 | 0.00 | 0.00 | 89 | 1016.9 |
| 20260831121525 | 76 | 93 | 0.0 | 2.0 | 0.00 | 0.00 | 0.00 | 89 | 1016.7 |
| 20260831120041 | 76 | 92 | 0.0 | 1.0 | 0.00 | 0.00 | 0.00 | 89 | 1016.7 |
| 20260831114537 | 76 | 92 | 0.0 | 0.0 | 0.00 | 0.00 | 0.00 | 89 | 1016.6 |
| 20260831113013 | 76 | 92 | 0.0 | 0.0 | 0.00 | 0.00 | 0.00 | 89 | 1016.7 |
| 20260831111517 | 76 | 92 | 0.0 | 0.0 | 0.00 | 0.00 | 0.00 | 89 | 1016.5 |
| 20260831110020 | 76 | 92 | 0.0 | 0.0 | 0.00 | 0.00 | 0.00 | 89 | 1016.5 |
| 20260831104542 | 77 | 92 | 0.0 | 0.0 | 0.00 | 0.00 | 0.00 | 89 | 1016.6 |
| 20260831103036 | 77 | 92 | 0.0 | 0.0 | 0.00 | 0.00 | 0.00 | 89 | 1016.5 |
| 20260831101537 | 77 | 92 | 0.0 | 2.0 | 0.00 | 0.00 | 0.00 | 89 | 1016.5 |
| 20260831100045 | 78 | 89 | 1.0 | 2.0 | 0.00 | 0.00 | 0.00 | 89 | 1016.6 |
| 20260831094535 | 78 | 90 | 1.0 | 7.0 | 0.00 | 0.00 | 0.00 | 89 | 1016.4 |
| 20260831093034 | 78 | 134 | 1.0 | 5.0 | 0.00 | 0.00 | 0.00 | 89 | 1016.3 |
| 20260831091512 | 78 | 98 | 0.0 | 5.0 | 0.00 | 0.00 | 0.00 | 89 | 1016.4 |
| 20260831090013 | 78 | 149 | 0.0 | 4.0 | 0.00 | 0.00 | 0.00 | 89 | 1016.6 |
| 20260831084521 | 79 | 139 | 2.0 | 7.0 | 0.00 | 0.00 | 0.00 | 89 | 1016.5 |
| 20260831083038 | 78 | 161 | 1.0 | 5.0 | 0.00 | 0.00 | 0.00 | 89 | 1016.4 |
| 20260831081513 | 78 | 177 | 0.0 | 4.0 | 0.00 | 0.00 | 0.00 | 88 | 1016.6 |
| 20260831080024 | 78 | 116 | 0.0 | 4.0 | 0.00 | 0.00 | 0.00 | 89 | 1016.7 |
| 20260831074509 | 79 | 157 | 1.0 | 7.0 | 0.00 | 0.00 | 0.00 | 89 | 1016.6 |
| 20260831073017 | 79 | 164 | 2.0 | 9.0 | 0.00 | 0.00 | 0.00 | 89 | 1016.6 |
| 20260831071527 | 79 | 130 | 2.0 | 9.0 | 0.00 | 0.00 | 0.00 | 89 | 1016.6 |
| 20260831070030 | 80 | 148 | 3.0 | 8.0 | 0.00 | 0.00 | 0.00 | 89 | 1016.8 |
| 20260831064537 | 80 | 219 | 2.0 | 10.0 | 0.00 | 0.00 | 0.00 | 89 | 1016.9 |
| 20260831063018 | 79 | 129 | 6.0 | 10.0 | 0.00 | 0.00 | 0.00 | 89 | 1017.0 |
| 20260831061523 | 78 | 119 | 6.0 | 9.0 | 0.00 | 0.00 | 0.00 | 89 | 1016.9 |
| 20260831060022 | 78 | 113 | 7.0 | 8.0 | 0.00 | 0.00 | 0.00 | 89 | 1017.0 |